{"data":{"norad_id":52994,"epoch":"2026-05-25T04:59:04.956000Z","epoch_age_seconds":57299,"freshness":"FRESH","line1":"1 52994U 22076J   26145.20769625 -.00001350  00000+0 -66687-4 0  9998","line2":"2 52994  53.2132 110.6203 0001645 108.4446 251.6724 15.08851840214399","mean_motion":15.0885184,"eccentricity":0.0001645,"inclination_deg":53.2132,"raan_deg":110.6203,"arg_perigee_deg":108.4446,"mean_anomaly_deg":251.6724,"bstar":-6.6687e-5,"rev_number":21439,"period_min":95.436805776769,"perigee_km":538.56921368668,"apogee_km":540.84518442817,"semimajor_km":6917.8441990574,"source":"CELESTRAK","updated_at":"2026-05-25T13:38:17.274975Z"}}